Find Kosmos-700

NORAD ID: 7593 Int'l Des: 1974-105 Owner: OKB10 Country: SU operational
LEOCIRCULARPOLAR

实时位置

正在加载3D地球...

关于 Kosmos-700

正在加载描述...

即将过境

Passes for default location (London). Set your location on the main map for personalized predictions.

高度历史

Loading altitude history...

两行轨道根数

1 07593U 74105A 26120.86543007 .00000051 00000-0 36124-4 0 9991
2 07593 82.9494 83.1250 0025940 74.9208 345.8819 13.76982642578771
Epoch: Apr 30, 2026 • Age: 9 hours

当前状态

高度 965.5 km
速度 7.38 km/s
星下点 21.56°N, 146.96°E
类型 other

Most Searched